Weather History for Al Udeid, Qatar

Change the Weather History Date:

Sunday, December 1, 2013

  Actual Average Record
Temperature  
Mean Temperature 70 °F -  
Max Temperature 80 °F - - ()
Min Temperature 60 °F - - ()
Cooling Degree Days 5    
Growing Degree Days 20 (Base 50)    
Moisture  
Dew Point 60 °F    
Average Humidity 80    
Maximum Humidity 100    
Minimum Humidity 32    
Precipitation  
Precipitation 0.00 in - - ()
Sea Level Pressure  
Sea Level Pressure 30.15 in    
Wind  
Wind Speed 5 mph ()    
Max Wind Speed 16 mph    
Max Gust Speed -    
Visibility 4.6 miles    
Events      
T = Trace of Precipitation, MM = Missing Value Source: Averaged Metar Reports

Daily Weather History Graph

Daily Weather History Graph

Search for Another Location

Airport:

Trip Planner

Search our weather history database for the weather conditions in past years. The results will help you decide how hot, cold, wet, or windy it might be!

Date:

Astronomy

Dec. 01, 2013 Rise Set
Actual Time 6:03 AM AST 4:44 PM AST
Civil Twilight 5:38 AM AST 5:09 PM AST
Nautical Twilight 5:10 AM AST 5:37 PM AST
Astronomical Twilight 4:42 AM AST 6:05 PM AST
Moon 4:04 AM AST (12/1) 3:27 PM AST (12/1)
Length of Visible Light 11h 30m
Length of Day
10h 41m
Waning Crescent, 4% of the Moon is Illuminated
Dec 1
Waning Crescent
Dec 3
New
Dec 9
First Quarter
Dec 17
Full
Dec 25
Last Quarter

Hourly Weather History & Observations

Time (AST) Temp. Dew Point Humidity Pressure Visibility Wind Dir Wind Speed Gust Speed Precip Events Conditions
12:55 AM 65.3 °F 62.1 °F 89% 30.12 in 5.6 mi Calm Calm - N/A   Clear
1:46 AM 62.6 °F 62.6 °F 100% 30.11 in 3.7 mi Calm Calm - N/A   Clear
1:55 AM 63.5 °F 62.1 °F 95% 30.12 in 3.7 mi Calm Calm - N/A   Clear
2:55 AM 62.4 °F 61.9 °F 98% 30.12 in 3.7 mi NW 3.5 mph - N/A   Clear
3:55 AM 62.2 °F 61.9 °F 99% 30.13 in 3.7 mi NNW 3.5 mph - N/A   Clear
4:35 AM 60.8 °F 60.8 °F 100% 30.14 in - NNW 4.6 mph - N/A   Clear
4:55 AM 61.2 °F 61.2 °F 100% 30.14 in - NW 3.5 mph - N/A   Clear
5:50 AM 60.8 °F 60.8 °F 100% 30.17 in 2.5 mi NW 4.6 mph - N/A   Clear
5:53 AM 60.8 °F 60.8 °F 100% 30.17 in - NW 4.6 mph - N/A   Clear
5:55 AM 60.8 °F 60.8 °F 100% 30.18 in - NW 4.6 mph - N/A   Clear
5:57 AM 60.8 °F 60.8 °F 100% 30.18 in 1.7 mi NW 4.6 mph - N/A   Clear
6:05 AM 60.8 °F 60.8 °F 100% 30.18 in 1.5 mi NW 5.8 mph - N/A   Clear
6:31 AM 60.8 °F 60.8 °F 100% 30.19 in 1.2 mi NW 4.6 mph - N/A   Clear
6:38 AM 60.8 °F 60.8 °F 100% 30.19 in 1.5 mi NW 5.8 mph - N/A   Clear
6:55 AM 61.7 °F 61.7 °F 100% 30.20 in 1.5 mi NW 6.9 mph - N/A   Clear
7:32 AM 64.4 °F 64.4 °F 100% 30.20 in 1.7 mi NW 5.8 mph - N/A   Clear
7:39 AM 64.4 °F 64.4 °F 100% 30.21 in - NW 4.6 mph - N/A   Clear
7:46 AM 66.2 °F 66.2 °F 100% 30.21 in 2.5 mi NW 5.8 mph - N/A   Clear
7:55 AM 66.7 °F 64.9 °F 94% 30.21 in 2.5 mi NW 5.8 mph - N/A   Clear
7:57 AM 66.2 °F 64.4 °F 94% 30.21 in - WNW 5.8 mph - N/A   Clear
8:22 AM 69.8 °F 66.2 °F 88% 30.21 in 3.7 mi WNW 5.8 mph - N/A   Clear
8:55 AM 71.8 °F 68.2 °F 88% 30.22 in 5.0 mi NW 9.2 mph - N/A   Clear
9:55 AM 75.0 °F 63.9 °F 68% 30.20 in 6.2 mi WNW 11.5 mph - N/A   Clear
10:55 AM 77.2 °F 59.7 °F 55% 30.18 in 6.2 mi NW 12.7 mph - N/A   Clear
11:55 AM 80.6 °F 51.8 °F 37% 30.13 in 6.2 mi NW 13.8 mph - N/A   Clear
12:55 PM - - N/A% - 6.2 mi NW 12.7 mph - N/A   Clear
1:09 PM 80.6 °F 48.2 °F 32% 30.10 in 6.2 mi NW 15.0 mph - N/A   Clear
1:15 PM 80.6 °F 50.0 °F 34% 30.10 in 6.2 mi NW 15.0 mph - N/A   Clear
1:48 PM 80.6 °F 50.0 °F 34% 30.12 in 6.2 mi NW 15.0 mph - N/A   Clear
1:55 PM 80.4 °F 50.9 °F 36% 30.12 in 6.2 mi NW 16.1 mph - N/A   Clear
2:55 PM 79.7 °F 51.8 °F 38% 30.10 in 6.2 mi NW 15.0 mph - N/A   Clear
3:55 PM 78.1 °F 50.9 °F 39% 30.11 in 6.2 mi NW 13.8 mph - N/A   Clear
4:55 PM 74.8 °F 54.3 °F 49% 30.12 in 6.2 mi NW 11.5 mph - N/A   Clear
5:55 PM 72.0 °F 55.0 °F 55% 30.12 in 6.2 mi NW 9.2 mph - N/A   Clear
6:55 PM 69.6 °F 57.2 °F 65% 30.13 in 6.2 mi NW 5.8 mph - N/A   Clear
7:55 PM 67.6 °F 58.8 °F 73% 30.14 in 6.2 mi NNW 8.1 mph - N/A   Clear
8:55 PM 66.4 °F 59.4 °F 78% 30.14 in 6.2 mi NNW 6.9 mph - N/A   Clear
9:55 PM 65.7 °F 61.5 °F 86% 30.14 in 5.6 mi NW 8.1 mph - N/A   Haze
10:55 PM 65.3 °F 62.6 °F 91% 30.13 in 5.6 mi NW 8.1 mph - N/A   Clear
11:55 PM 63.3 °F 63.3 °F 100% 30.11 in 5.0 mi NNW 6.9 mph - N/A   Clear